Wind_Speed
39 38 39 38 38 38 39 39 37 35 34 34 38 30 22 18 12 13 26 34 26 34 29 34 33 23 25 36 32 30 35 45 43 39 34 31 35 34 30 37 28 30 30 26
39 37 37 38 36 36 36 33 32 32 31 33 35 26 13 18 18 13 25 34 33 37 38 36 39 29 32 20 27 35 27 23 29 32 25 27 30 35 26 30 28 28 35 31
38 38 37 35 32 32 29 29 31 30 30 32 31 24 18 15 19 19 24 29 35 35 35 40 41 35 31 32 29 21 25 27 25 34 33 29 33 25 34 33 30 25 26 34
37 34 32 30 29 27 27 28 28 29 31 27 17 17 14 17 17 21 24 25 26 24 27 28 41 42 34 30 11 27 25 33 35 31 37 27 26 39 35 28 30 29 28 26
31 29 28 27 26 25 26 26 27 27 28 21 15 19 18 19 19 20 20 22 21 25 28 28 32 36 32 34 6 10 16 33 36 31 34 33 25 10 18 37 33 38 28 35
27 26 25 26 25 25 25 25 27 26 24 18 19 20 15 17 18 14 18 26 23 23 16 29 34 39 45 34 25 15 15 32 34 34 35 44 22 25 24 31 45 35 34 39
26 25 23 23 24 24 25 25 26 24 22 18 22 19 20 18 21 15 19 19 26 28 25 25 27 36 39 45 35 31 25 25 35 38 40 35 27 29 32 34 36 39 27 39
23 22 23 24 24 25 25 25 25 24 22 19 24 16 15 17 17 19 19 21 26 31 26 24 19 30 28 26 32 33 37 37 30 32 43 38 31 32 27 26 23 33 38 30
22 21 22 25 25 26 26 25 24 24 21 22 19 18 19 21 24 22 22 9 16 8 27 25 22 27 22 20 22 30 35 33 29 32 30 33 35 45 44 38 44 26 38 37
21 23 24 24 24 25 26 25 23 23 22 26 21 21 19 20 19 18 17 13 8 11 24 22 18 18 21 18 19 27 29 26 32 18 18 32 36 42 41 41 39 39 44 21
22 23 23 23 24 26 26 24 23 23 23 25 18 20 17 14 12 17 23 17 16 20 19 20 19 21 26 28 27 27 34 34 36 37 37 41 47 44 43 46 49 44 43 48
24 25 26 25 26 27 26 23 23 23 22 20 17 19 24 17 10 8 18 24 19 17 26 29 5 18 23 27 27 30 30 35 39 40 35 37 46 36 36 37 39 45 45 38
26 26 25 25 26 27 26 23 22 24 22 18 17 23 25 19 16 13 14 8 24 18 27 26 26 20 18 26 32 33 33 36 39 40 32 29 35 37 38 43 44 41 40 40
27 26 26 26 26 26 24 21 21 23 22 19 14 14 22 20 19 16 15 10 13 27 22 21 20 23 18 15 17 14 33 18 18 23 31 30 34 30 32 38 40 35 39 39
27 24 24 24 24 26 23 20 20 22 22 18 16 16 17 26 24 21 17 13 8 13 12 13 10 14 14 16 5 11 23 27 18 27 31 29 31 36 24 28 44 45 46 49
26 25 24 24 26 25 23 17 20 22 22 18 15 14 14 22 27 26 20 16 16 11 9 10 5 16 14 13 18 16 18 11 17 21 23 22 18 17 19 17 17 22 24 29
27 25 23 25 25 25 23 17 19 20 21 16 15 15 15 19 23 20 19 18 15 13 10 12 11 10 11 23 19 19 11 8 9 10 13 20 13 8 15 19 21 24 25 29
26 25 24 22 22 24 21 19 17 20 19 13 13 15 14 19 19 19 17 16 14 12 11 9 9 11 11 14 19 16 13 13 8 9 12 17 16 13 13 17 20 23 26 27
24 24 23 23 24 23 19 16 16 18 16 11 13 13 14 16 21 20 17 15 14 11 10 14 14 12 11 12 15 12 11 8 9 6 7 12 15 17 16 19 23 24 29 29
23 24 25 24 25 20 17 14 14 16 13 11 13 11 7 19 19 17 18 14 11 12 11 11 10 11 11 6 7 9 9 10 12 13 15 18 19 23 24 26 27 28 29 26
26 24 29 25 24 19 16 12 12 14 11 12 11 10 8 21 21 13 11 14 14 14 13 10 11 12 7 7 8 9 11 13 17 18 20 24 23 22 24 27 27 23 21 25
35 31 24 25 23 19 14 9 12 13 10 13 13 11 11 23 14 24 17 13 13 13 11 12 11 7 8 9 9 12 14 15 18 19 21 24 27 26 27 27 25 25 21 19
31 30 29 28 24 18 11 11 12 14 12 11 14 14 14 24 21 17 15 15 10 11 10 15 11 15 12 13 16 14 15 18 19 21 22 22 25 27 28 31 31 31 23 18
29 29 30 29 23 13 15 14 12 15 13 11 15 16 13 21 23 21 22 21 20 13 11 13 15 7 14 18 17 15 14 18 21 21 22 22 25 27 27 31 11 17 15 17
29 32 33 30 22 17 17 16 14 15 11 9 13 14 11 18 22 29 22 9 17 19 23 18 14 17 18 17 17 16 16 18 20 22 22 24 27 26 26 27 34 19 11 20
32 30 32 33 28 19 19 16 14 12 12 9 14 18 17 16 21 26 17 21 21 27 23 19 16 18 18 18 18 19 17 18 19 21 21 23 25 20 23 22 21 22 15 15
32 23 22 20 19 16 14 15 17 16 14 15 15 17 19 15 15 23 17 21 22 19 18 10 13 18 21 18 20 20 20 18 19 18 18 19 20 21 22 20 18 15 13 14
Wind_Direction
296 297 299 302 305 305 306 307 308 312 320 313 311 308 288 254 242 263 226 218 224 213 210 209 224 230 238 214 229 221 237 234 236 228 206 221 225 232 244 245 232 219 233 227
297 299 298 301 301 303 306 306 305 315 313 311 307 304 284 258 235 245 234 220 222 225 221 223 219 230 232 221 234 226 220 221 233 242 248 224 223 224 237 235 251 235 229 235
296 298 296 297 298 302 301 302 307 313 308 309 311 301 260 252 236 235 237 243 243 251 238 226 222 231 227 215 213 229 217 211 215 226 224 226 240 200 220 226 235 233 226 234
291 293 293 295 296 298 300 304 311 310 309 313 295 290 280 250 259 266 263 249 238 247 248 243 229 227 232 214 152 203 198 204 209 219 216 216 245 237 210 208 219 240 254 246
289 291 293 290 292 295 300 305 308 307 309 308 276 266 261 253 252 274 247 257 247 240 239 238 232 236 233 226 223 263 226 191 207 212 215 222 263 192 210 221 219 223 228 243
285 286 290 289 294 297 298 303 305 306 306 283 258 268 246 261 264 285 243 246 240 242 236 235 233 231 232 242 244 258 206 204 206 212 220 221 232 231 220 224 215 216 217 231
283 284 285 284 293 291 294 302 304 302 299 272 264 282 244 250 264 279 261 230 239 242 257 255 254 236 232 236 235 239 238 211 214 216 221 224 239 251 243 224 232 210 231 238
279 282 286 285 289 288 293 300 300 298 294 274 263 278 266 264 260 268 258 239 253 250 238 244 247 235 245 241 232 232 240 231 222 232 221 229 241 233 253 251 239 228 219 224
276 282 284 285 283 286 291 299 298 294 292 272 272 258 261 277 282 291 259 250 220 204 219 242 240 233 232 231 229 236 236 246 249 240 224 231 237 236 238 254 259 248 208 228
276 278 280 285 281 283 290 296 295 289 292 271 276 260 270 283 284 242 245 237 253 210 220 228 232 228 219 211 205 217 226 247 241 209 226 238 241 250 256 263 265 273 266 298
274 274 276 280 278 280 288 294 293 286 291 278 278 254 241 272 278 224 223 230 220 236 232 233 235 230 225 218 209 213 218 226 234 242 235 246 247 248 248 255 267 264 274 275
271 271 275 280 277 277 284 289 289 285 292 285 273 244 226 238 266 259 247 227 233 246 257 255 261 230 225 216 221 220 222 228 233 236 245 244 247 250 252 258 264 260 268 275
270 270 270 275 276 278 283 286 285 282 289 284 264 233 228 233 249 256 268 280 241 256 239 258 263 270 280 217 226 227 230 240 242 236 248 269 241 236 246 257 262 264 267 271
267 266 272 270 272 277 281 286 283 279 284 281 283 269 237 238 248 248 261 259 254 238 256 251 260 271 256 263 269 267 225 259 277 235 237 250 270 248 245 248 253 260 264 262
263 264 267 265 268 278 281 285 278 275 279 276 272 258 262 238 239 254 248 254 257 223 231 256 260 266 253 246 251 235 231 251 245 240 252 271 270 281 278 247 237 250 256 259
259 260 257 262 269 278 281 279 275 277 277 280 275 269 250 232 229 245 247 243 235 247 231 258 270 237 222 204 228 210 234 286 227 244 274 270 273 295 276 280 277 273 273 275
254 254 255 260 265 274 283 275 274 278 277 278 269 268 264 243 232 235 240 242 240 236 235 227 247 242 236 223 250 251 231 11 287 294 289 294 292 279 274 281 285 281 277 272
247 247 253 258 269 277 279 269 272 273 277 280 269 272 260 250 224 222 227 231 239 247 238 233 231 228 222 227 250 265 269 269 242 231 259 268 284 296 293 288 287 284 280 277
242 247 249 259 269 272 270 263 266 270 275 268 268 271 283 247 209 212 210 221 223 230 237 229 231 235 235 248 265 279 275 276 297 274 260 287 302 309 306 293 290 291 287 282
241 250 254 263 266 266 263 260 267 268 269 257 262 265 282 196 205 209 202 207 211 223 234 220 215 235 237 224 238 250 267 283 293 296 296 298 303 301 302 304 298 293 291 296
236 249 262 253 259 259 256 258 272 268 259 250 250 249 264 196 203 204 212 194 207 217 207 226 223 231 219 213 233 258 272 281 284 290 296 301 306 303 295 291 292 290 293 293
244 255 255 248 253 256 258 256 260 256 247 242 247 233 172 162 168 197 216 192 205 222 212 212 248 258 216 213 226 250 261 271 279 288 295 300 301 295 292 295 294 286 284 285
247 253 245 245 251 255 255 248 248 247 238 231 241 244 229 209 194 196 189 200 199 225 233 216 218 245 250 246 247 248 262 273 286 296 303 296 296 295 294 293 292 277 283 287
243 238 240 244 246 242 240 242 241 244 242 227 235 240 247 216 195 199 208 217 210 193 193 226 249 248 252 253 260 258 267 283 291 295 298 297 296 296 297 303 248 270 272 285
234 236 239 243 233 227 238 244 244 247 248 227 225 226 223 204 193 206 212 190 195 215 231 245 246 242 252 256 260 271 281 285 292 296 297 294 292 294 295 293 299 276 276 277
239 247 251 237 221 215 226 230 240 254 250 239 222 221 215 215 217 222 226 226 243 251 247 242 250 252 248 253 267 276 283 288 291 289 292 296 296 296 305 313 315 311 302 300
237 228 219 223 206 213 222 226 235 244 248 230 228 226 222 222 201 206 201 218 232 237 238 246 271 270 263 264 274 282 287 290 285 288 294 296 296 300 304 313 325 326 313 300
Height
5821 5818 5816 5813 5809 5806 5802 5799 5796 5792 5788 5785 5778 5775 5772 5773 5774 5776 5777 5778 5780 5783 5784 5785 5787 5791 5791 5794 5799 5803 5807 5806 5812 5816 5823 5832 5836 5841 5844 5846 5850 5853 5855 5857
5812 5810 5807 5804 5801 5798 5794 5791 5788 5785 5781 5776 5771 5768 5769 5768 5769 5772 5773 5772 5772 5775 5778 5780 5783 5786 5789 5791 5793 5789 5800 5806 5810 5815 5822 5825 5827 5827 5836 5841 5844 5845 5849 5852
5802 5800 5797 5794 5792 5789 5787 5784 5780 5779 5772 5768 5764 5762 5762 5762 5763 5764 5764 5766 5769 5770 5774 5776 5778 5780 5782 5783 5783 5792 5794 5797 5802 5809 5814 5819 5820 5820 5826 5833 5837 5839 5842 5846
5792 5790 5788 5786 5784 5781 5780 5777 5774 5770 5765 5761 5759 5759 5759 5759 5760 5759 5760 5759 5761 5764 5766 5769 5772 5774 5777 5777 5774 5778 5779 5790 5797 5800 5807 5814 5806 5812 5819 5824 5831 5835 5838 5839
5783 5782 5780 5778 5776 5774 5772 5771 5767 5763 5759 5756 5754 5751 5752 5752 5754 5753 5755 5753 5756 5756 5757 5762 5766 5769 5773 5773 5776 5779 5777 5787 5791 5797 5801 5801 5794 5807 5806 5813 5816 5822 5828 5829
5775 5774 5772 5771 5769 5767 5764 5763 5761 5757 5753 5750 5749 5748 5749 5748 5748 5748 5748 5749 5751 5752 5753 5754 5756 5761 5764 5768 5771 5776 5779 5783 5786 5792 5794 5795 5800 5795 5799 5802 5806 5816 5818 5818
5767 5766 5764 5763 5762 5761 5759 5757 5754 5751 5748 5745 5743 5744 5743 5743 5743 5744 5744 5745 5743 5748 5749 5750 5751 5754 5759 5763 5769 5771 5777 5778 5783 5786 5789 5793 5796 5790 5792 5794 5800 5804 5806 5809
5759 5758 5758 5756 5755 5754 5752 5750 5748 5745 5743 5740 5738 5740 5741 5739 5738 5738 5737 5739 5740 5740 5746 5747 5746 5750 5757 5761 5766 5767 5770 5777 5779 5781 5785 5788 5788 5786 5787 5788 5795 5795 5795 5799
5751 5751 5750 5750 5748 5747 5745 5743 5741 5739 5737 5735 5736 5737 5735 5736 5735 5737 5735 5737 5736 5737 5742 5743 5743 5747 5749 5754 5760 5765 5767 5769 5776 5780 5779 5783 5782 5784 5785 5786 5783 5782 5781 5790
5743 5744 5743 5742 5741 5740 5739 5737 5735 5733 5732 5728 5730 5734 5734 5732 5730 5729 5732 5736 5736 5735 5732 5737 5740 5743 5746 5749 5753 5761 5763 5763 5768 5772 5773 5777 5778 5777 5783 5783 5785 5785 5782 5768
5736 5736 5735 5735 5734 5733 5733 5731 5729 5728 5726 5722 5724 5726 5729 5728 5725 5726 5728 5732 5734 5732 5733 5733 5735 5742 5743 5743 5746 5749 5755 5759 5760 5765 5770 5770 5767 5771 5777 5776 5775 5777 5780 5780
5728 5728 5728 5727 5727 5726 5726 5724 5723 5721 5720 5719 5719 5720 5722 5725 5725 5725 5725 5729 5729 5730 5730 5726 5730 5736 5737 5741 5744 5746 5750 5753 5756 5757 5759 5762 5758 5764 5767 5768 5770 5774 5775 5775
5719 5719 5720 5720 5719 5719 5719 5718 5717 5715 5715 5713 5713 5713 5718 5722 5722 5723 5724 5725 5726 5727 5726 5727 5728 5731 5730 5733 5739 5742 5746 5748 5749 5751 5751 5739 5746 5761 5760 5761 5764 5767 5769 5770
5711 5711 5712 5712 5712 5712 5712 5711 5711 5710 5709 5709 5711 5713 5715 5718 5719 5721 5721 5723 5722 5722 5723 5726 5727 5727 5728 5731 5732 5736 5741 5740 5740 5742 5748 5739 5742 5756 5755 5754 5757 5761 5761 5765
5703 5704 5704 5705 5706 5705 5705 5705 5705 5704 5705 5705 5705 5708 5708 5712 5714 5716 5718 5719 5719 5719 5720 5722 5725 5724 5725 5729 5730 5732 5735 5738 5737 5736 5738 5737 5738 5737 5740 5741 5750 5754 5754 5753
5695 5696 5698 5698 5699 5699 5699 5700 5699 5699 5699 5699 5700 5702 5702 5704 5708 5710 5713 5716 5717 5717 5718 5719 5722 5723 5723 5726 5725 5729 5733 5734 5734 5732 5733 5736 5739 5735 5736 5735 5736 5741 5744 5743
5687 5689 5691 5691 5692 5693 5694 5696 5693 5693 5694 5694 5696 5697 5699 5699 5702 5706 5708 5710 5713 5715 5717 5719 5719 5720 5721 5723 5721 5724 5731 5732 5730 5729 5729 5729 5731 5734 5736 5738 5737 5736 5734 5734
5679 5683 5684 5684 5686 5687 5688 5687 5688 5688 5689 5690 5691 5692 5693 5694 5697 5701 5704 5707 5709 5711 5713 5715 5717 5718 5720 5720 5719 5723 5726 5729 5728 5730 5730 5729 5731 5731 5732 5732 5730 5729 5728 5728
5672 5676 5677 5678 5679 5680 5681 5682 5682 5683 5686 5686 5687 5687 5688 5689 5693 5696 5700 5703 5707 5710 5711 5712 5715 5715 5717 5718 5718 5720 5722 5721 5723 5726 5727 5725 5723 5725 5726 5726 5725 5722 5720 5719
5665 5669 5671 5672 5673 5675 5676 5678 5678 5679 5681 5682 5682 5684 5685 5687 5691 5694 5697 5700 5704 5707 5708 5710 5712 5713 5715 5717 5716 5717 5719 5720 5720 5721 5722 5722 5722 5721 5719 5716 5715 5714 5712 5710
5658 5661 5664 5666 5667 5669 5671 5673 5675 5676 5677 5678 5679 5680 5681 5684 5688 5692 5695 5697 5700 5703 5706 5708 5708 5711 5713 5715 5716 5716 5717 5718 5717 5717 5717 5715 5715 5713 5711 5709 5708 5707 5705 5704
5651 5655 5656 5659 5661 5664 5668 5669 5670 5671 5674 5674 5675 5677 5678 5683 5685 5688 5692 5694 5698 5700 5703 5705 5705 5708 5710 5711 5714 5715 5715 5715 5714 5714 5714 5712 5711 5709 5706 5704 5703 5699 5698 5696
5644 5647 5651 5654 5656 5660 5663 5664 5665 5667 5669 5671 5672 5675 5679 5681 5683 5687 5689 5693 5695 5698 5699 5702 5704 5705 5707 5708 5710 5711 5711 5710 5710 5709 5708 5706 5703 5701 5699 5696 5694 5693 5693 5692
5636 5639 5644 5647 5652 5656 5657 5659 5661 5663 5665 5668 5669 5671 5673 5676 5680 5684 5686 5689 5691 5694 5696 5698 5701 5702 5703 5704 5705 5706 5708 5707 5705 5704 5702 5700 5696 5693 5691 5688 5678 5681 5684 5684
5630 5634 5637 5642 5646 5650 5652 5654 5656 5658 5661 5664 5665 5668 5670 5672 5675 5677 5681 5683 5690 5692 5691 5696 5699 5700 5700 5701 5701 5703 5703 5702 5701 5699 5697 5695 5690 5687 5684 5680 5680 5675 5676 5677
5623 5627 5632 5636 5640 5644 5647 5649 5652 5653 5657 5660 5663 5664 5666 5670 5673 5677 5681 5685 5686 5684 5689 5694 5696 5696 5697 5698 5697 5697 5697 5696 5696 5694 5691 5688 5684 5683 5679 5678 5674 5673 5669 5670
5615 5622 5625 5629 5634 5640 5644 5647 5648 5650 5653 5655 5658 5660 5662 5667 5669 5673 5678 5679 5680 5683 5687 5691 5692 5691 5692 5693 5694 5693 5691 5691 5690 5689 5686 5683 5680 5677 5676 5674 5672 5669 5669 5668